GW5208 Weather Reports


Display with metric or nautical units.
time (UTC)temp
F
wind
direction
speed
MPH
gust
MPH
rain 1hr
in
rain 24hr
in
rain mn
in
humidity
%
barometer
mb
20260901231514 85 198 0.0 0.0 0.00 0.00 0.00 22 1009.6
20260901230032 85 133 0.0 0.0 0.00 0.00 0.00 24 1009.7
20260901224526 85 167 0.0 0.0 0.00 0.00 0.00 21 1009.9
20260901223008 84 169 0.0 0.0 0.00 0.00 0.00 22 1010.0
20260901221534 84 195 0.0 0.0 0.00 0.00 0.00 22 1010.3
20260901220021 85 207 0.0 0.0 0.00 0.00 0.00 23 1010.6
20260901214536 84 250 0.0 0.0 0.00 0.00 0.00 23 1010.7
20260901213028 84 148 0.0 0.0 0.00 0.00 0.00 24 1010.8
20260901211529 84 187 0.0 0.0 0.00 0.00 0.00 29 1010.9
20260901210031 83 184 0.0 0.0 0.00 0.00 0.00 26 1011.1
20260901204522 83 155 0.0 0.0 0.00 0.00 0.00 25 1011.3
20260901203030 81 189 0.0 0.0 0.00 0.00 0.00 26 1011.4
20260901201531 81 157 0.0 0.0 0.00 0.00 0.00 27 1011.6
20260901200039 80 70 0.0 0.0 0.00 0.00 0.00 32 1011.8
20260901194533 79 98 0.0 0.0 0.00 0.00 0.00 29 1012.0
20260901193026 78 158 0.0 0.0 0.00 0.00 0.00 30 1012.2
20260901191506 78 231 0.0 0.0 0.00 0.00 0.00 32 1012.4
20260901190014 77 165 0.0 0.0 0.00 0.00 0.00 31 1012.7
20260901184520 76 82 0.0 0.0 0.00 0.00 0.00 35 1012.8
20260901183003 74 152 0.0 0.0 0.00 0.00 0.00 36 1013.0
20260901181507 73 162 0.0 0.0 0.00 0.00 0.00 36 1013.1
20260901180014 73 148 0.0 0.0 0.00 0.00 0.00 36 1013.1
20260901174520 72 164 0.0 0.0 0.00 0.00 0.00 38 1013.3
20260901173028 71 165 0.0 0.0 0.00 0.00 0.00 41 1013.4
20260901171503 69 103 0.0 0.0 0.00 0.00 0.00 46 1013.4
20260901170008 67 108 0.0 0.0 0.00 0.00 0.00 48 1013.6
20260901164516 65 137 0.0 0.0 0.00 0.00 0.00 50 1013.8
20260901163022 64 148 0.0 0.0 0.00 0.00 0.00 50 1013.8
20260901161504 63 150 0.0 0.0 0.00 0.00 0.00 50 1013.8
20260901160011 63 159 0.0 0.0 0.00 0.00 0.00 51 1013.9
20260901154521 61 139 0.0 0.0 0.00 0.00 0.00 54 1014.0
20260901153031 60 149 0.0 0.0 0.00 0.00 0.00 56 1013.8
20260901151529 58 152 0.0 0.0 0.00 0.00 0.00 60 1014.0
20260901150008 57 153 0.0 0.0 0.00 0.00 0.00 67 1014.2
20260901144515 54 145 0.0 0.0 0.00 0.00 0.00 74 1014.4
20260901143019 50 107 0.0 0.0 0.00 0.00 0.00 77 1014.4
20260901141525 49 107 0.0 0.0 0.00 0.00 0.00 77 1014.3
20260901140028 48 98 0.0 0.0 0.00 0.00 0.00 78 1014.1
20260901134510 46 68 0.0 0.0 0.00 0.00 0.00 78 1014.0
20260901133016 46 68 0.0 0.0 0.00 0.00 0.00 77 1013.7
20260901131524 46 68 0.0 0.0 0.00 0.00 0.00 78 1013.6
20260901130029 46 68 0.0 0.0 0.00 0.00 0.00 78 1013.8
20260901124531 46 68 0.0 0.0 0.00 0.00 0.00 75 1014.0
20260901123023 47 68 0.0 0.0 0.00 0.00 0.00 75 1014.0
20260901121518 47 68 0.0 0.0 0.00 0.00 0.00 74 1014.0
20260901120027 47 68 0.0 0.0 0.00 0.00 0.00 76 1013.7
20260901114533 47 326 0.0 0.0 0.00 0.00 0.00 74 1013.9
20260901113034 47 326 0.0 0.0 0.00 0.00 0.00 74 1013.9
20260901111519 47 326 0.0 0.0 0.00 0.00 0.00 74 1014.1
20260901110026 46 318 0.0 0.0 0.00 0.00 0.00 76 1014.2
20260901104538 45 318 0.0 0.0 0.00 0.00 0.00 75 1014.0
20260901103029 45 318 0.0 0.0 0.00 0.00 0.00 75 1014.0
20260901101544 45 318 0.0 0.0 0.00 0.00 0.00 75 1014.2
20260901100022 46 318 0.0 0.0 0.00 0.00 0.00 76 1014.4
20260901094529 47 318 0.0 0.0 0.00 0.00 0.00 73 1014.3
20260901093031 48 318 0.0 0.0 0.00 0.00 0.00 72 1014.4
20260901091533 48 318 0.0 0.0 0.00 0.00 0.00 70 1014.3
20260901090032 50 318 0.0 0.0 0.00 0.00 0.00 67 1014.6
20260901084526 50 318 0.0 0.0 0.00 0.00 0.00 67 1014.4
20260901083030 50 314 0.0 0.0 0.00 0.00 0.00 67 1014.5
20260901081533 52 333 0.0 0.0 0.00 0.00 0.00 65 1014.6
20260901080036 52 350 0.0 0.0 0.00 0.00 0.00 64 1014.6
20260901074543 52 101 0.0 0.0 0.00 0.00 0.00 62 1014.9
20260901073037 53 101 0.0 0.0 0.00 0.00 0.00 61 1015.0
20260901071510 54 101 0.0 0.0 0.00 0.00 0.00 60 1015.0
20260901070014 55 99 0.0 0.0 0.00 0.00 0.00 58 1015.0
20260901064522 54 99 0.0 0.0 0.00 0.00 0.00 60 1015.0
20260901063015 54 99 0.0 0.0 0.00 0.00 0.00 60 1014.8
20260901061508 55 99 0.0 0.0 0.00 0.00 0.00 58 1014.9
20260901060011 55 169 0.0 0.0 0.00 0.00 0.00 58 1014.9
20260901054519 56 169 0.0 0.0 0.00 0.00 0.00 59 1015.1
20260901053022 56 169 0.0 0.0 0.00 0.00 0.00 59 1015.2
20260901051517 57 169 0.0 0.0 0.00 0.00 0.00 57 1015.3
20260901050010 59 163 0.0 0.0 0.00 0.00 0.00 55 1015.3
20260901044517 60 153 0.0 0.0 0.00 0.00 0.00 51 1015.4
20260901043025 59 77 0.0 0.0 0.00 0.00 0.00 52 1015.3
20260901041504 59 77 0.0 0.0 0.00 0.00 0.00 51 1015.2
20260901040011 60 77 0.0 0.0 0.00 0.00 0.00 49 1015.1
20260901034511 60 77 0.0 0.0 0.00 0.00 0.00 48 1015.0
20260901033018 60 77 0.0 0.0 0.00 0.00 0.00 49 1014.7
20260901031544 61 77 0.0 0.0 0.00 0.00 0.00 45 1014.6
20260901030007 62 77 0.0 0.0 0.00 0.00 0.00 43 1014.4
20260901024510 64 77 0.0 0.0 0.00 0.00 0.00 40 1014.3
20260901023020 66 77 0.0 0.0 0.00 0.00 0.00 38 1014.2
20260901021527 69 77 0.0 0.0 0.00 0.00 0.00 35 1014.3
20260901020027 72 77 0.0 0.0 0.00 0.00 0.00 33 1014.3
20260901014527 75 77 0.0 0.0 0.00 0.00 0.00 31 1014.3
20260901013014 75 77 0.0 0.0 0.00 0.00 0.00 31 1014.4
20260901011528 76 123 0.0 0.0 0.00 0.00 0.00 30 1014.4
20260901010031 77 113 0.0 0.0 0.00 0.00 0.00 29 1014.5
20260901004535 78 159 0.0 0.0 0.00 0.00 0.00 27 1014.6
20260901003014 77 146 0.0 0.0 0.00 0.00 0.00 27 1014.6
20260901001520 77 136 0.0 0.0 0.00 0.00 0.00 29 1014.7
20260901000028 78 155 0.0 0.0 0.00 0.00 0.00 27 1014.9
20260831234530 78 166 0.0 0.0 0.00 0.00 0.00 27 1015.0
20260831233033 77 234 0.0 0.0 0.00 0.00 0.00 28 1015.0